Orbital Elements
Epoch 2011 Apr. 29.0 TT = JDT 2455680.5
T 2011 Apr. 24.57212 TT MPCW
q 1.7077337 (2000.0) P Q
n 0.15235624 Peri. 336.40391 +0.87842631 -0.45379149
a 3.4718628 Node 51.43995 +0.46326573 +0.73172051
e 0.5081218 Incl. 11.04460 +0.11726926 +0.50858468
P 6.47
From 424 observations 2004 July 16-2017 June 22, mean residual 0".6.
|